Location: Street
(51.1247°N, 2.7429°W)
Time: 08:06:10
(UTC+00:00)

Tiros 1 - Pass Details

Date: 03 December 2020
Orbit: 630 x 663 km, 48.4° (Epoch: 28 January)

Event Time Altitude Azimuth Distance (km) Brightness Sun altitude
Rises 16:52:01 0° 267° (W) 2,995 12.0 -7.0°
Reaches altitude 10° 16:54:24 10° 264° (W) 2,081 11.1 -7.3°
Maximum altitude 16:59:09 63° 184° (S) 736 7.6 -8.0°
Drops below altitude 10° 17:03:52 10° 104° (ESE) 2,067 9.3 -8.7°
Enters shadow 17:04:56 - 102° (ESE) 2,476 9.7 -8.8°
Sets 17:06:13 0° 101° (E) 2,973 - -9.0°
